Météo par heure à Júlio de Castilhos

Ce jour, 20 Juin, Dimanche

Heure Température Précipitation Vent Pression Humidité
00:00 +10°C° 0 mm 2 m/s 721 mmHg 98%
01:00 +10°C° 0 mm 2 m/s 721 mmHg 98%
02:00 +10°C° 0 mm 1 m/s 721 mmHg 98%
03:00 +10°C° 0 mm 1 m/s 721 mmHg 97%
04:00 +10°C° 0 mm 1 m/s 721 mmHg 97%
05:00 +10°C° 0 mm 1 m/s 721 mmHg 96%
06:00 +10°C° 0 mm 1 m/s 722 mmHg 95%
07:00 +11°C° 0 mm 1 m/s 722 mmHg 94%
08:00 +11°C° 0 mm 1 m/s 723 mmHg 92%
09:00 +12°C° 0 mm 1 m/s 723 mmHg 88%
10:00 +13°C° 0 mm 1 m/s 723 mmHg 84%
11:00 +13°C° 0 mm 0 m/s 723 mmHg 80%
12:00 +14°C° 0 mm 1 m/s 722 mmHg 77%
13:00 +14°C° 0 mm 1 m/s 722 mmHg 75%
14:00 +15°C° 0 mm 1 m/s 722 mmHg 72%
15:00 +14°C° 0 mm 1 m/s 722 mmHg 74%
16:00 +13°C° 0 mm 1 m/s 722 mmHg 76%
17:00 +13°C° 0 mm 1 m/s 722 mmHg 78%
18:00 +13°C° 0 mm 1 m/s 722 mmHg 80%
19:00 +12°C° 0 mm 1 m/s 722 mmHg 81%
20:00 +12°C° 0 mm 1 m/s 723 mmHg 82%
21:00 +12°C° 0 mm 1 m/s 722 mmHg 82%
22:00 +12°C° 0 mm 2 m/s 722 mmHg 83%
23:00 +10°C° 0 mm 2 m/s 722 mmHg 84%

Demain, 21 Juin, Lundi

Heure Température Précipitation Vent Pression Humidité
00:00 +10°C° 0 mm 2 m/s 722 mmHg 84%
01:00 +10°C° 0 mm 2 m/s 721 mmHg 85%
02:00 +10°C° 0 mm 2 m/s 721 mmHg 86%
03:00 +9°C° 0 mm 2 m/s 721 mmHg 88%
04:00 +9°C° 0 mm 2 m/s 721 mmHg 89%
05:00 +8°C° 0 mm 2 m/s 721 mmHg 91%
06:00 +9°C° 0 mm 2 m/s 721 mmHg 89%
07:00 +10°C° 0 mm 2 m/s 721 mmHg 87%
08:00 +10°C° 0 mm 2 m/s 722 mmHg 85%
09:00 +13°C° 0 mm 2 m/s 722 mmHg 80%
10:00 +13°C° 0 mm 3 m/s 722 mmHg 75%
11:00 +16°C° 0 mm 3 m/s 722 mmHg 69%
12:00 +15°C° 0 mm 2 m/s 721 mmHg 73%
13:00 +15°C° 0 mm 2 m/s 721 mmHg 77%
14:00 +14°C° 0 mm 1 m/s 720 mmHg 81%
15:00 +14°C° 0 mm 1 m/s 721 mmHg 85%
16:00 +13°C° 0 mm 1 m/s 721 mmHg 88%
17:00 +12°C° 0 mm 1 m/s 721 mmHg 92%
18:00 +12°C° 0 mm 1 m/s 721 mmHg 93%
19:00 +12°C° 0 mm 1 m/s 721 mmHg 94%
20:00 +12°C° 0 mm 1 m/s 722 mmHg 96%
21:00 +12°C° 0 mm 1 m/s 722 mmHg 96%
22:00 +12°C° 0 mm 1 m/s 722 mmHg 97%
23:00 +11°C° 0 mm 1 m/s 722 mmHg 97%

Après-demain, 22 Juin, Mardi

Heure Température Précipitation Vent Pression Humidité
00:00 +10°C° 0 mm 2 m/s 722 mmHg 97%
01:00 +10°C° 0 mm 2 m/s 722 mmHg 97%
02:00 +10°C° 0 mm 2 m/s 722 mmHg 97%
03:00 +10°C° 0 mm 2 m/s 722 mmHg 97%
04:00 +9°C° 0 mm 2 m/s 722 mmHg 97%
05:00 +9°C° 0 mm 2 m/s 722 mmHg 97%
06:00 +10°C° 0 mm 2 m/s 722 mmHg 96%
07:00 +10°C° 0 mm 2 m/s 723 mmHg 94%
08:00 +11°C° 0 mm 3 m/s 723 mmHg 93%
09:00 +12°C° 0 mm 3 m/s 723 mmHg 86%
10:00 +14°C° 0 mm 3 m/s 723 mmHg 80%
11:00 +15°C° 0 mm 4 m/s 723 mmHg 73%
12:00 +15°C° 0 mm 4 m/s 723 mmHg 72%
13:00 +17°C° 0 mm 4 m/s 722 mmHg 70%
14:00 +17°C° 0 mm 3 m/s 722 mmHg 69%
15:00 +16°C° 0 mm 3 m/s 722 mmHg 76%
16:00 +13°C° 0 mm 3 m/s 722 mmHg 83%
17:00 +12°C° 0 mm 3 m/s 721 mmHg 89%
18:00 +11°C° 0 mm 3 m/s 722 mmHg 91%
19:00 +11°C° 0 mm 3 m/s 722 mmHg 93%
20:00 +10°C° 0 mm 4 m/s 722 mmHg 94%
21:00 +10°C° 0 mm 4 m/s 722 mmHg 95%
22:00 +10°C° 0 mm 4 m/s 721 mmHg 95%
23:00 +8°C° 0 mm 4 m/s 721 mmHg 95%

23 Juin, Mercredi

Heure Température Précipitation Vent Pression Humidité
00:00 +8°C° 0 mm 4 m/s 721 mmHg 95%
01:00 +9°C° 0 mm 3 m/s 721 mmHg 95%
02:00 +9°C° 0 mm 3 m/s 720 mmHg 95%
03:00 +8°C° 0 mm 4 m/s 720 mmHg 95%
04:00 +8°C° 0 mm 4 m/s 720 mmHg 94%
05:00 +8°C° 0 mm 4 m/s 720 mmHg 94%
06:00 +10°C° 0 mm 4 m/s 720 mmHg 92%
07:00 +11°C° 0 mm 4 m/s 720 mmHg 89%
08:00 +12°C° 0 mm 4 m/s 721 mmHg 87%
09:00 +13°C° 0 mm 4 m/s 721 mmHg 83%
10:00 +15°C° 0 mm 4 m/s 720 mmHg 80%
11:00 +16°C° 0 mm 5 m/s 720 mmHg 77%
12:00 +17°C° 0.4 mm 4 m/s 720 mmHg 79%
13:00 +18°C° 0.4 mm 4 m/s 719 mmHg 81%
14:00 +18°C° 0.4 mm 4 m/s 719 mmHg 84%
15:00 +17°C° 0.4 mm 3 m/s 719 mmHg 87%
16:00 +17°C° 0.4 mm 3 m/s 718 mmHg 91%
17:00 +16°C° 0.4 mm 2 m/s 718 mmHg 94%
18:00 +16°C° 0.8 mm 3 m/s 718 mmHg 94%
19:00 +15°C° 0.8 mm 4 m/s 718 mmHg 93%
20:00 +15°C° 0.8 mm 4 m/s 718 mmHg 93%
21:00 +15°C° 0 mm 4 m/s 717 mmHg 93%
22:00 +15°C° 0 mm 5 m/s 717 mmHg 92%
23:00 +15°C° 0 mm 5 m/s 716 mmHg 92%

24 Juin, Jeudi

Heure Température Précipitation Vent Pression Humidité
00:00 +15°C° 0 mm 4 m/s 716 mmHg 92%
01:00 +16°C° 0 mm 3 m/s 715 mmHg 93%
02:00 +14°C° 0 mm 3 m/s 715 mmHg 94%
03:00 +15°C° 0.8 mm 2 m/s 714 mmHg 94%
04:00 +15°C° 0.8 mm 2 m/s 714 mmHg 95%
05:00 +15°C° 0.8 mm 2 m/s 714 mmHg 96%
06:00 +16°C° 0.2 mm 2 m/s 714 mmHg 95%
07:00 +16°C° 0.2 mm 2 m/s 714 mmHg 94%
08:00 +16°C° 0.2 mm 2 m/s 714 mmHg 93%
09:00 +17°C° 0.3 mm 2 m/s 713 mmHg 91%
10:00 +17°C° 0.3 mm 3 m/s 713 mmHg 90%
11:00 +17°C° 0.3 mm 3 m/s 713 mmHg 89%
12:00 +17°C° 2.6 mm 4 m/s 712 mmHg 91%
13:00 +16°C° 2.6 mm 5 m/s 712 mmHg 93%
14:00 +16°C° 2.6 mm 6 m/s 711 mmHg 95%
15:00 +16°C° 1.2 mm 6 m/s 711 mmHg 94%
16:00 +16°C° 1.2 mm 6 m/s 711 mmHg 94%
17:00 +16°C° 1.2 mm 6 m/s 711 mmHg 93%
18:00 +16°C° 0.6 mm 6 m/s 712 mmHg 94%
19:00 +15°C° 0.6 mm 7 m/s 713 mmHg 94%
20:00 +15°C° 0.6 mm 8 m/s 713 mmHg 95%
21:00 +14°C° 0.1 mm 7 m/s 714 mmHg 94%
22:00 +14°C° 0.1 mm 6 m/s 715 mmHg 94%
23:00 +13°C° 0.1 mm 6 m/s 715 mmHg 93%

25 Juin, Vendredi

Heure Température Précipitation Vent Pression Humidité
00:00 +13°C° 0.1 mm 5 m/s 716 mmHg 94%
01:00 +13°C° 0.1 mm 4 m/s 716 mmHg 95%
02:00 +12°C° 0.1 mm 3 m/s 716 mmHg 96%
03:00 +12°C° 0 mm 3 m/s 717 mmHg 96%
04:00 +13°C° 0 mm 2 m/s 717 mmHg 96%
05:00 +13°C° 0 mm 2 m/s 717 mmHg 96%
06:00 +14°C° 0 mm 2 m/s 718 mmHg 94%
07:00 +14°C° 0 mm 1 m/s 718 mmHg 93%
08:00 +14°C° 0 mm 1 m/s 719 mmHg 91%
09:00 +15°C° 0 mm 1 m/s 719 mmHg 86%
10:00 +16°C° 0 mm 1 m/s 719 mmHg 81%
11:00 +16°C° 0 mm 1 m/s 720 mmHg 77%
12:00 +18°C° 0 mm 1 m/s 719 mmHg 75%
13:00 +18°C° 0 mm 1 m/s 719 mmHg 74%
14:00 +18°C° 0 mm 1 m/s 718 mmHg 72%
15:00 +16°C° 0 mm 1 m/s 718 mmHg 77%
16:00 +15°C° 0 mm 2 m/s 718 mmHg 81%
17:00 +14°C° 0 mm 2 m/s 718 mmHg 85%
18:00 +13°C° 0 mm 2 m/s 718 mmHg 88%
19:00 +12°C° 0 mm 2 m/s 719 mmHg 90%
20:00 +12°C° 0 mm 2 m/s 719 mmHg 93%
21:00 +10°C° 0 mm 2 m/s 719 mmHg 94%
22:00 +10°C° 0 mm 2 m/s 719 mmHg 95%
23:00 +10°C° 0 mm 2 m/s 719 mmHg 96%
Voir plus

Nous avons besoin de votre consentement

Meteoprog et ses fournisseurs de services peuvent stocker et accéder à des données personnelles telles que des cookies, des identifiants d'appareils ou d'autres technologies similaires sur votre appareil et traiter ces données pour personnaliser le contenu et les publicités, ainsi que pour fournir des fonctionnalités de médias sociaux et analyser le trafic.

  • Stocker et/ou accéder à des informations sur votre appareil

    Des cookies, des identifiants d'appareils ou d'autres informations peuvent être stockés ou accessibles sur votre appareil aux fins indiquées ci-dessus.

  • Annonces et contenus personnalisés, mesure des annonces et des contenus, connaissance de l'audience et développement de produits

    Les annonces et le contenu peuvent être personnalisés en fonction d'un profil. D'autres données peuvent être ajoutées pour mieux personnaliser les annonces et le contenu. Les performances des publicités et du contenu peuvent être mesurées. Il est possible d'obtenir des informations sur le public qui a vu les publicités et le contenu. Ces données peuvent être utilisées pour développer ou améliorer l'expérience de l'utilisateur, les systèmes et les logiciels.

En cliquant sur "J'accepte", vous autorisez l'utilisation de cookies, des identifiants d'appareils, des balises web ou d'autres technologies similaires. Vos paramètres peuvent être modifiés dans le navigateur de votre appareil.

Dans certains cas, des intérêts légitimes peuvent être invoqués plutôt qu'un consentement. Vous pouvez en savoir plus à ce sujet dans notre Politique de confidentialité et de cookies.